Location: Fort Wayne
(41.1310°N, 85.1290°W)
Time: 09:06:39
(UTC-04:00)

Cosmos 2056 Rocket - Visible Passes

Search period start: 30 August 2016 00:00
Search period end: 09 September 2016 00:00
Orbit: 743 x 801 km, 74.0° (Epoch: 30 August)

Date Brightness Start Highest point End Pass type
(mag) Time Alt. Az. Time Alt. Az. Time Alt. Az.
30 Aug 5.7 00:51:22 10° N 00:53:20 22° N 00:53:20 22° N visible
31 Aug 5.7 00:15:47 10° N 00:17:51 20° NNE 00:17:51 20° NNE visible
31 Aug 6.3 01:57:46 10° NW 01:58:11 12° NW 01:58:11 12° NW visible
31 Aug 5.8 23:40:29 10° NNE 23:42:25 16° NNE 23:42:25 16° NNE visible
01 Sep 6.0 01:21:34 10° NNW 01:22:44 17° NNW 01:22:44 17° NNW visible
01 Sep 5.9 23:05:49 10° NNE 23:06:59 12° NE 23:06:59 12° NE visible
02 Sep 5.8 00:45:35 10° NNW 00:47:19 21° NNW 00:47:19 21° NNW visible
03 Sep 5.5 00:09:46 10° N 00:11:55 24° N 00:11:55 24° N visible
03 Sep 5.4 23:34:09 10° N 23:36:33 22° NNE 23:36:33 22° NNE visible
04 Sep 6.3 01:16:16 10° NW 01:16:52 13° NW 01:16:52 13° NW visible
04 Sep 5.5 22:58:48 10° N 23:01:11 18° NE 23:01:11 18° NE visible
05 Sep 5.9 00:40:01 10° NNW 00:41:31 19° NNW 00:41:31 19° NNW visible
05 Sep 5.7 22:24:00 10° NNE 22:25:51 13° NE 22:25:51 13° NE visible
06 Sep 5.5 00:04:01 10° NNW 00:06:11 25° NNW 00:06:11 25° NNW visible
06 Sep 5.2 23:28:11 10° N 23:30:53 29° N 23:30:53 29° N visible
07 Sep 5.1 22:52:32 10° N 22:55:36 27° NNE 22:55:36 27° NNE visible
08 Sep 6.1 00:34:46 10° NW 00:35:56 16° NW 00:35:56 16° NW visible
08 Sep 5.2 22:17:09 10° N 22:20:20 21° NE 22:20:20 21° NE visible
